This is the latest recevied weather packets stored in our database for station/object W7MB. If no packets are shown the sender has not sent any weather packets the latest 10 day(s).
| Time | Temp. | Humidity | Pressure | Rain* | Wind** | Luminosity | Snow |
|---|---|---|---|---|---|---|---|
| 1777476244 | 3.89° C | 49% | 1023.4 hPa | 0 mm | - | - | - |
| 1777475883 | 3.33° C | 50% | 1023.4 hPa | 0 mm | - | - | - |
| 1777475523 | 2.78° C | 52% | 1023.5 hPa | 0 mm | - | - | - |
| 1777475163 | 2.22° C | 55% | 1023.5 hPa | 0 mm | - | - | - |
| 1777474804 | 1.67° C | 57% | 1023.5 hPa | 0 mm | - | - | - |
| 1777474443 | 1.67° C | 57% | 1023.6 hPa | 0 mm | - | - | - |
| 1777474083 | 1.67° C | 57% | 1023.5 hPa | 0 mm | - | - | - |
| 1777473724 | 1.11° C | 58% | 1023.5 hPa | 0 mm | - | - | - |
| 1777473363 | 1.11° C | 59% | 1023.4 hPa | 0 mm | - | - | - |
| 1777473004 | 1.11° C | 59% | 1023.4 hPa | 0 mm | - | - | - |
| 1777472643 | 0.56° C | 60% | 1023.5 hPa | 0 mm | - | - | - |
| 1777472283 | 0.56° C | 61% | 1023.4 hPa | 0 mm | - | - | - |
| 1777471923 | 0.56° C | 61% | 1023.4 hPa | 0 mm | - | - | - |
| 1777471563 | 0.56° C | 62% | 1023.3 hPa | 0 mm | - | - | - |
| 1777471205 | 0.56° C | 64% | 1023.3 hPa | 0 mm | - | - | - |
| 1777470843 | 0° C | 64% | 1023.2 hPa | 0 mm | - | - | - |
| 1777470484 | 0° C | 65% | 1023.1 hPa | 0 mm | - | - | - |
| 1777470123 | 0° C | 65% | 1023 hPa | 0 mm | - | - | - |
| 1777469763 | 0° C | 65% | 1022.9 hPa | 0 mm | - | - | - |
| 1777469403 | 0.56° C | 65% | 1022.7 hPa | 0 mm | - | - | - |
| 1777469043 | 0.56° C | 64% | 1022.8 hPa | 0 mm | - | - | - |
| 1777468683 | 0° C | 65% | 1022.7 hPa | 0 mm | - | - | - |
| 1777468323 | 0.56° C | 64% | 1022.7 hPa | 0 mm | - | - | - |
| 1777467963 | 0° C | 64% | 1022.5 hPa | 0 mm | - | - | - |
| 1777467604 | 0° C | 66% | 1022.5 hPa | 0 mm | - | - | - |
* Rain latest hour (hover to see other rain measurements)
** Current wind speed in m/s (hover to see current wind gust speed)